Weather reports worldwide

Advertisment
Capo Frasca, Italy (16539): temperature & dewpoint: 15.05.2019 05:00:00 - 21.05.2019 05:00:00 (CEST)Capo Frasca, Italy (16539): wind speed: 15.05.2019 05:00:00 - 21.05.2019 05:00:00 (CEST)Capo Frasca, Italy (16539): wind direction: 15.05.2019 05:00:00 - 21.05.2019 05:00:00 (CEST)Capo Frasca, Italy (16539): reduced air pressure: 15.05.2019 05:00:00 - 21.05.2019 05:00:00 (CEST)Capo Frasca, Italy (16539): visibility: 15.05.2019 05:00:00 - 21.05.2019 05:00:00 (CEST)
Date & Time tt [°C] td [°C] ff [km/h] ff [kn] dd ppp [hPa] vv [km]
21.05.2019 05:00:00 - - - - - - -
21.05.2019 04:00:00 - - - - - - -
21.05.2019 03:00:00 - - - - - - -
21.05.2019 02:00:00 - - - - - - -
21.05.2019 01:00:00 - - - - - - -
21.05.2019 00:00:00 - - - - - - -
20.05.2019 23:00:00 - - - - - - -
20.05.2019 22:00:00 - - - - - - -
20.05.2019 21:00:00 - - - - - - -
20.05.2019 20:00:00 15,8 15,0 22 12 W 1013,9 20
20.05.2019 19:00:00 - - - - - - -
20.05.2019 18:00:00 - - - - - - -
20.05.2019 17:00:00 17,2 15,6 13 7 W 1013,8 20
20.05.2019 16:00:00 - - - - - - -
20.05.2019 15:00:00 - - - - - - -
20.05.2019 14:00:00 15,8 14,5 26 14 WNW 1013,0 20
20.05.2019 13:00:00 - - - - - - -
20.05.2019 12:00:00 - - - - - - -
20.05.2019 11:00:00 14,0 13,1 21 11 NW 1012,3 10
20.05.2019 10:00:00 - - - - - - -
20.05.2019 09:00:00 - - - - - - -
20.05.2019 08:00:00 12,0 10,9 2 1 N 1010,3 10
20.05.2019 07:00:00 - - - - - - -
20.05.2019 06:00:00 - - - - - - -
20.05.2019 05:00:00 - - - - - - -
20.05.2019 04:00:00 - - - - - - -
20.05.2019 03:00:00 - - - - - - -
20.05.2019 02:00:00 - - - - - - -
20.05.2019 01:00:00 - - - - - - -
20.05.2019 00:00:00 - - - - - - -
19.05.2019 23:00:00 - - - - - - -
19.05.2019 22:00:00 - - - - - - -
19.05.2019 21:00:00 - - - - - - -
19.05.2019 20:00:00 16,2 15,1 15 8 W 1008,9 20
19.05.2019 19:00:00 - - - - - - -
19.05.2019 18:00:00 - - - - - - -
19.05.2019 17:00:00 16,8 15,5 18 10 W 1009,1 20
19.05.2019 16:00:00 - - - - - - -
19.05.2019 15:00:00 - - - - - - -
19.05.2019 14:00:00 16,6 15,0 13 7 W 1008,4 20
19.05.2019 13:00:00 - - - - - - -
19.05.2019 12:00:00 - - - - - - -
19.05.2019 11:00:00 12,4 11,3 13 7 SW 1008,6 20
19.05.2019 10:00:00 - - - - - - -
19.05.2019 09:00:00 - - - - - - -
19.05.2019 08:00:00 13,2 11,9 5 3 SW 1008,0 20
19.05.2019 07:00:00 - - - - - - -
19.05.2019 06:00:00 - - - - - - -
19.05.2019 05:00:00 - - - - - - -
19.05.2019 04:00:00 - - - - - - -
19.05.2019 03:00:00 - - - - - - -
19.05.2019 02:00:00 - - - - - - -
19.05.2019 01:00:00 - - - - - - -
19.05.2019 00:00:00 - - - - - - -
18.05.2019 23:00:00 - - - - - - -
18.05.2019 22:00:00 - - - - - - -
18.05.2019 21:00:00 - - - - - - -
18.05.2019 20:00:00 15,2 14,1 16 9 NW 1007,4 25
18.05.2019 19:00:00 - - - - - - -
18.05.2019 18:00:00 - - - - - - -
18.05.2019 17:00:00 15,8 15,2 21 11 WNW 1007,3 20
18.05.2019 16:00:00 - - - - - - -
18.05.2019 15:00:00 - - - - - - -
18.05.2019 14:00:00 17,0 14,5 22 12 WNW 1006,2 25
18.05.2019 13:00:00 - - - - - - -
18.05.2019 12:00:00 - - - - - - -
18.05.2019 11:00:00 16,2 14,6 18 10 WNW 1006,2 20
18.05.2019 10:00:00 - - - - - - -
18.05.2019 09:00:00 - - - - - - -
18.05.2019 08:00:00 14,2 12,9 24 13 NW 1004,1 20
18.05.2019 07:00:00 - - - - - - -
18.05.2019 06:00:00 - - - - - - -
18.05.2019 05:00:00 - - - - - - -
18.05.2019 04:00:00 - - - - - - -
18.05.2019 03:00:00 - - - - - - -
18.05.2019 02:00:00 - - - - - - -
18.05.2019 01:00:00 - - - - - - -
18.05.2019 00:00:00 - - - - - - -
17.05.2019 23:00:00 - - - - - - -
17.05.2019 22:00:00 - - - - - - -
17.05.2019 21:00:00 - - - - - - -
17.05.2019 20:00:00 17,8 17,7 29 16 SW 1002,9 15
17.05.2019 19:00:00 - - - - - - -
17.05.2019 18:00:00 - - - - - - -
17.05.2019 17:00:00 17,6 16,8 18 10 S 1003,1 10
17.05.2019 16:00:00 - - - - - - -
17.05.2019 15:00:00 - - - - - - -
17.05.2019 14:00:00 19,4 13,8 50 27 SSE 1001,8 20
17.05.2019 13:00:00 - - - - - - -
17.05.2019 12:00:00 - - - - - - -
17.05.2019 11:00:00 18,6 14,3 44 24 SSE 1002,9 20
17.05.2019 10:00:00 - - - - - - -
17.05.2019 09:00:00 - - - - - - -
17.05.2019 08:00:00 11,2 10,3 28 15 SE 1006,7 20
17.05.2019 07:00:00 - - - - - - -
17.05.2019 06:00:00 - - - - - - -
17.05.2019 05:00:00 - - - - - - -
17.05.2019 04:00:00 - - - - - - -
17.05.2019 03:00:00 - - - - - - -
17.05.2019 02:00:00 - - - - - - -
17.05.2019 01:00:00 - - - - - - -
17.05.2019 00:00:00 - - - - - - -
16.05.2019 23:00:00 - - - - - - -
16.05.2019 22:00:00 - - - - - - -
16.05.2019 21:00:00 - - - - - - -
16.05.2019 20:00:00 15,4 14,6 13 7 NNW 1011,3 20
16.05.2019 19:00:00 - - - - - - -
16.05.2019 18:00:00 - - - - - - -
16.05.2019 17:00:00 18,0 16,3 24 13 N 1012,1 20
16.05.2019 16:00:00 - - - - - - -
16.05.2019 15:00:00 - - - - - - -
16.05.2019 14:00:00 17,2 13,7 22 12 NW 1012,4 20
16.05.2019 13:00:00 - - - - - - -
16.05.2019 12:00:00 - - - - - - -
16.05.2019 11:00:00 15,6 10,8 18 10 N 1012,4 20
16.05.2019 10:00:00 - - - - - - -
16.05.2019 09:00:00 - - - - - - -
16.05.2019 08:00:00 11,6 11,3 18 10 NNE 1012,1 20
16.05.2019 07:00:00 - - - - - - -
16.05.2019 06:00:00 - - - - - - -
16.05.2019 05:00:00 - - - - - - -
16.05.2019 04:00:00 - - - - - - -
16.05.2019 03:00:00 - - - - - - -
16.05.2019 02:00:00 - - - - - - -
16.05.2019 01:00:00 - - - - - - -
16.05.2019 00:00:00 - - - - - - -
15.05.2019 23:00:00 - - - - - - -
15.05.2019 22:00:00 - - - - - - -
15.05.2019 21:00:00 - - - - - - -
15.05.2019 20:00:00 13,2 11,1 24 13 NE 1008,4 20
15.05.2019 19:00:00 - - - - - - -
15.05.2019 18:00:00 - - - - - - -
15.05.2019 17:00:00 15,0 14,2 29 16 NW 1007,5 20
15.05.2019 16:00:00 - - - - - - -
15.05.2019 15:00:00 - - - - - - -
15.05.2019 14:00:00 17,0 15,4 31 17 WSW 1008,2 20
15.05.2019 13:00:00 - - - - - - -
15.05.2019 12:00:00 - - - - - - -
15.05.2019 11:00:00 16,2 14,9 21 11 SW 1010,7 20
15.05.2019 10:00:00 - - - - - - -
15.05.2019 09:00:00 - - - - - - -
15.05.2019 08:00:00 13,4 12,5 5 3 SW 1011,7 10
15.05.2019 07:00:00 - - - - - - -
15.05.2019 06:00:00 - - - - - - -
15.05.2019 05:00:00 - - - - - - -

tt = temperature
td = dewpoint
ff = wind speed
dd = wind direction
ppp = reduced air pressure
vv = visibility

Next stations